TimeEST,TemperatureF,Dew PointF,Humidity,Sea Level PressureIn,VisibilityMPH,Wind Direction,Wind SpeedMPH,Gust SpeedMPH,PrecipitationIn,Events,Conditions,WindDirDegrees,DateUTC
12:51 AM,41.0,33.1,73,30.04,9.0,NW,6.9,-,N/A,,Overcast,320,2013-02-06 05:51:00
12:58 AM,44.6,30.2,57,30.03,9.0,NW,10.4,-,N/A,,Overcast,320,2013-02-06 05:58:00
1:51 AM,39.2,30.0,70,30.06,10.0,WNW,4.6,-,N/A,,Overcast,300,2013-02-06 06:51:00
2:51 AM,39.2,30.0,70,30.08,10.0,West,3.5,-,N/A,,Overcast,260,2013-02-06 07:51:00
3:51 AM,39.2,30.0,70,30.09,9.0,North,3.5,-,N/A,,Overcast,360,2013-02-06 08:51:00
4:51 AM,39.2,30.0,70,30.11,8.0,NNW,5.8,-,N/A,,Overcast,330,2013-02-06 09:51:00
5:51 AM,42.1,30.0,62,30.14,8.0,North,5.8,-,N/A,,Overcast,350,2013-02-06 10:51:00
6:51 AM,37.4,30.0,75,30.16,7.0,Variable,4.6,-,N/A,,Overcast,0,2013-02-06 11:51:00
6:58 AM,35.6,28.4,75,30.15,8.0,WNW,4.6,-,N/A,,Overcast,300,2013-02-06 11:58:00
7:51 AM,35.6,28.9,77,30.18,7.0,North,3.5,-,N/A,,Haze,360,2013-02-06 12:51:00
8:51 AM,35.6,30.2,81,30.20,7.0,North,4.6,-,N/A,,Mostly Cloudy,350,2013-02-06 13:51:00
9:51 AM,37.4,28.4,70,30.23,9.0,NW,5.8,-,N/A,,Overcast,320,2013-02-06 14:51:00
10:51 AM,37.4,26.6,65,30.24,10.0,NW,3.5,-,N/A,,Overcast,310,2013-02-06 15:51:00
11:51 AM,37.4,26.6,65,30.25,10.0,Calm,Calm,-,N/A,,Overcast,0,2013-02-06 16:51:00
12:51 PM,39.2,28.0,64,30.24,10.0,ENE,4.6,-,N/A,,Mostly Cloudy,60,2013-02-06 17:51:00
12:58 PM,41.0,28.4,61,30.23,10.0,North,4.6,-,N/A,,Mostly Cloudy,360,2013-02-06 17:58:00
1:51 PM,42.8,28.0,56,30.23,10.0,NE,4.6,-,N/A,,Mostly Cloudy,40,2013-02-06 18:51:00
2:51 PM,42.8,28.4,57,30.22,10.0,Calm,Calm,-,N/A,,Clear,0,2013-02-06 19:51:00
3:51 PM,44.6,28.4,53,30.23,10.0,NNW,4.6,-,N/A,,Partly Cloudy,340,2013-02-06 20:51:00
4:51 PM,44.6,28.4,53,30.24,10.0,Calm,Calm,-,N/A,,Clear,0,2013-02-06 21:51:00
5:51 PM,44.6,28.4,53,30.24,10.0,Calm,Calm,-,N/A,,Clear,0,2013-02-06 22:51:00
6:51 PM,39.2,28.4,65,30.25,10.0,NE,5.8,-,N/A,,Clear,50,2013-02-06 23:51:00
7:51 PM,37.4,28.0,69,30.25,10.0,ENE,6.9,-,N/A,,Clear,60,2013-02-07 00:51:00
8:51 PM,35.6,28.0,74,30.25,10.0,ENE,9.2,-,N/A,,Clear,60,2013-02-07 01:51:00
9:51 PM,33.8,28.4,81,30.25,9.0,NE,8.1,-,N/A,,Clear,50,2013-02-07 02:51:00
10:51 PM,33.8,27.0,76,30.27,8.0,Calm,Calm,-,N/A,,Clear,0,2013-02-07 03:51:00
11:51 PM,32.0,26.1,79,30.26,7.0,ENE,5.8,-,N/A,,Clear,70,2013-02-07 04:51:00